Flag for Malta Weather past 2 weeks in Valletta, Malta

Now
82 °F

Passing clouds.


Feels Like: 85 °F
Forecast: 73 / 85 °F
Wind: 13 mph from North

Location: Luqa

Current Time: Jul 30, 2014 at 11:37:55 AM

Latest Report: Jul 30, 2014 at 10:45 AM


Visibility: N/A

Pressure: 29.86 "Hg

Humidity: 62%

Dew point: 68 °F

Location of VallettaLocation

Historic Weather in Valletta — Graph

°F

Valletta temperature yesterday

Maximum temperature yesterday: 91 °F (at 1:45 PM)
Minimum temperature yesterday: 70 °F (at 3:15 AM)
Average temperature yesterday: 78 °F

Past Weeks' High & Low Weather Summary

 TemperatureHumidityPressure
High91 °F (Jul 21, 1:15 PM)94% (Jul 19, 3:15 AM)30.04 "Hg (Jul 19, 3:15 AM)
Low70 °F (Jul 16, 5:15 AM)20% (Jul 21, 2:15 PM)29.77 "Hg (Jul 30, 2:45 AM)
Average78 °F66%29.95 "Hg
* Reported Jul 15 10:15 AM — Jul 30 10:15 AM, Valletta, Weather by CustomWeather, © 2014

Note: Actual official high and low records may vary slightly from our data, if they occured in-between our weather recording intervals... More about our weather records

Advertising

Valletta weather history for previous 24 hours

 ConditionsComfort  
Time TempWeatherWind HumidityBarometerVisibility
10:15 AM
Jul 30
81 °FScattered clouds.16 mph70%29.86 "HgN/A
9:45 AM82 °FScattered clouds.6 mph66%29.86 "HgN/A
9:15 AM81 °FPassing clouds.7 mph70%29.83 "HgN/A
8:45 AM79 °FPassing clouds.3 mph70%29.83 "HgN/A
8:15 AM79 °FSunny.2 mph70%29.83 "Hg10 mi
7:45 AM77 °FSprinkles. Clear.8 mph79%29.80 "HgN/A
7:15 AM75 °FPassing clouds.8 mph83%29.83 "Hg6 mi
6:45 AM75 °FPassing clouds.17 mph89%29.83 "Hg5 mi
6:15 AM77 °FPassing clouds.10 mph79%29.83 "HgN/A
5:45 AM77 °FClear.8 mph74%29.83 "Hg1 mi
5:15 AM77 °FPassing clouds.9 mph65%29.83 "HgN/A
4:45 AM77 °FPassing clouds.6 mph79%29.80 "HgN/A
4:15 AM75 °FPassing clouds.3 mph89%29.80 "HgN/A
3:45 AM75 °FClear.5 mph89%29.80 "Hg10 mi
3:15 AM75 °FClear.7 mph83%29.77 "Hg10 mi
2:45 AM77 °FClear.9 mph79%29.77 "Hg10 mi
2:15 AM77 °FPassing clouds.10 mph79%29.80 "HgN/A
1:45 AM77 °FClear.16 mph79%29.80 "Hg10 mi
1:15 AM75 °FClear.15 mph83%29.83 "Hg10 mi
12:45 AM75 °FPassing clouds.5 mph78%29.86 "HgN/A
12:15 AM75 °FClear.5 mph83%29.89 "Hg10 mi
11:45 PM
Jul 29
75 °FClear.2 mph83%29.89 "Hg10 mi
11:15 PM75 °FClear.1 mph83%29.89 "Hg10 mi
10:45 PM77 °FPassing clouds.6 mph83%29.83 "HgN/A
10:15 PM77 °FClear.12 mph83%29.83 "Hg10 mi
9:45 PM77 °FClear.10 mph83%29.83 "Hg10 mi
9:15 PM77 °FClear.12 mph83%29.80 "Hg10 mi
8:45 PM77 °FSunny.12 mph83%29.80 "Hg10 mi
8:15 PM77 °FSunny.15 mph83%29.80 "Hg10 mi
7:45 PM79 °FSunny.13 mph74%29.80 "Hg10 mi
7:15 PM81 °FSunny.12 mph66%29.80 "Hg10 mi
6:45 PM81 °FSunny.12 mph70%29.83 "Hg10 mi
6:15 PM82 °FSunny.12 mph66%29.83 "Hg10 mi
5:45 PM82 °FHaze.12 mph58%29.83 "HgN/A
5:15 PM82 °FSunny.10 mph55%29.86 "Hg10 mi
4:45 PM82 °FPassing clouds.10 mph51%29.86 "HgN/A
4:15 PM84 °FPassing clouds.10 mph51%29.86 "HgN/A
3:45 PM84 °FPassing clouds.9 mph51%29.86 "HgN/A
3:15 PM84 °FSunny.10 mph48%29.86 "Hg10 mi
2:45 PM86 °FPassing clouds.10 mph46%29.89 "HgN/A
1:45 PM91 °FSunny.3 mph26%29.89 "Hg10 mi
1:15 PM90 °FPassing clouds.7 mph27%29.89 "HgN/A
12:45 PM88 °FPassing clouds.3 mph25%29.89 "HgN/A
12:15 PM86 °FPassing clouds.6 mph33%29.92 "HgN/A
11:45 AM84 °FPassing clouds.7 mph48%29.92 "HgN/A
11:15 AM84 °FPassing clouds.7 mph48%29.89 "HgN/A
Weather by CustomWeather, © 2014

See weather overviewHow to use our weather pages